This demonstration page uses our WeatherBlox Daily Observations layout. Learn more.

Left ArrowRight Arrow

31.31129, -92.44514

Hourly Observations for December 1, 2021

Temp ( °F °C ) Dew Point ( °F °C ) Humidity (%) Winds ( mph kmh ) Pressure ( in mb ) Visibility ( mi km ) Precip ( " mm )
12:53 am 00:53 Clear 54 12.2 48 8.9 80 80 S 5 7 30.15 1021 10 16 0.00 0.00
1:53 am 01:53 Clear 50 10 44 6.7 80 80 S 7 11 30.15 1021 10 16 0.00 0.00
2:53 am 02:53 Clear 50 10 44 6.7 80 80 ESE 3 6 30.14 1021 10 16 0.00 0.00
3:53 am 03:53 Clear 47 8.3 43 6.1 86 86 Calm 30.14 1021 10 16 0.00 0.00
4:53 am 04:53 Clear 46 7.8 43 6.1 89 89 SSE 3 6 30.14 1021 10 16 0.00 0.00
5:53 am 05:53 Clear 46 7.8 42 5.6 86 86 E 3 6 30.15 1021 10 16 0.00 0.00
6:53 am 06:53 Sunny 43 6.1 40 4.4 89 89 Calm 30.18 1022 10 16 0.00 0.00
7:53 am 07:53 Sunny 49 9.4 45 7.2 86 86 SE 6 9 30.18 1022 7 11 0.00 0.00
8:53 am 08:53 Sunny 55 12.8 51 10.6 87 87 SSE 5 7 30.18 1022 9 14 0.00 0.00
9:53 am 09:53 Sunny 62 16.7 54 12.2 75 75 S 3 6 30.20 1023 10 16 0.00 0.00
10:53 am 10:53 Sunny 69 20.6 57 13.9 66 66 S 6 9 30.19 1022 10 16 0.00 0.00
11:53 am 11:53 Mostly Sunny 73 22.8 58 14.4 59 59 SW 13 20 30.14 1021 10 16 0.00 0.00
12:53 pm 12:53 Sunny 74 23.3 56 13.3 54 54 SW 9 15 30.11 1020 10 16 0.00 0.00
1:53 pm 13:53 Sunny 76 24.4 56 13.3 50 50 SW 12 19 30.09 1019 10 16 0.00 0.00
2:53 pm 14:53 Sunny 76 24.4 54 12.2 47 47 WSW 9 15 30.07 1018 10 16 0.00 0.00
3:53 pm 15:53 Sunny 74 23.3 55 12.8 52 52 SW 9 15 30.07 1018 10 16 0.00 0.00
4:53 pm 16:53 Sunny 72 22.2 54 12.2 53 53 SW 5 7 30.07 1018 10 16 0.00 0.00
5:53 pm 17:53 Clear 64 17.8 54 12.2 70 70 Calm 30.09 1019 10 16 0.00 0.00
6:53 pm 18:53 Clear 62 16.7 54 12.2 75 75 S 3 6 30.11 1020 10 16 0.00 0.00
7:53 pm 19:53 Clear 60 15.6 55 12.8 84 84 SSE 3 6 30.12 1020 10 16 0.00 0.00
8:53 pm 20:53 Clear 57 13.9 53 11.7 87 87 ESE 3 6 30.12 1020 10 16 0.00 0.00
9:53 pm 21:53 Clear 58 14.4 53 11.7 84 84 SW 6 9 30.12 1020 10 16 0.00 0.00
10:53 pm 22:53 Clear 59 15 55 12.8 87 87 Calm 30.13 1020 10 16 0.00 0.00
11:53 pm 23:53 Clear 60 15.6 57 13.9 90 90 Calm 30.13 1020 7 11 0.00 0.00

Powered by AerisWeather